Вернуться в каталог

BSAT-1A

АктивенСвязьGEO
NORAD 24769·PAYLOAD·🇯🇵 Japan

Запущен Apr 16, 1997 с Guiana Space Centre

Loading…

TLE

СвежийSource: Space-Track

Эпоха: Sep 14, 2026, 13:23 UTC

1 24769U 97016B   26257.55830394 -.00000229  00000-0  00000-0 0  9994
2 24769  11.3263  40.1690 0003255 235.0005  89.1093  0.99124093 47688

Отслеживайте BSAT-1A в реальном времени с AllMySat

Download on the App Store